RH
31 22 22 22 21 20 28 22 18 18 22 22 23 26 24 24 25 31 34 35 28 21 16 12 9 13 15 16 14 13 13 14 14 17 23 22 19 16 15 16 16 16 14
37 25 22 24 23 21 28 22 16 17 18 20 20 19 21 26 29 33 32 27 23 18 11 8 7 6 7 8 9 11 13 14 14 14 15 21 19 18 18 13 15 21 20
45 33 24 25 25 21 29 21 16 15 17 18 18 18 17 22 26 26 24 20 14 9 7 6 6 6 6 7 7 9 11 12 13 14 17 24 24 17 19 25 21 36 26
47 37 27 25 26 22 26 20 16 15 20 25 23 16 14 14 15 14 12 10 8 7 7 7 7 7 6 6 6 8 10 12 13 14 18 21 19 15 20 20 19 26 30
49 42 25 26 26 24 25 20 16 18 27 24 17 12 12 11 10 9 8 8 9 9 9 8 8 7 7 7 7 8 10 12 12 14 13 13 13 15 17 17 18 24 33
50 49 31 26 25 27 26 21 18 25 26 19 13 12 10 10 9 8 9 9 9 9 10 9 8 8 8 8 8 9 12 13 13 12 10 22 31 34 32 26 27 22 28
52 53 46 28 27 31 30 26 23 27 22 17 12 9 9 9 9 9 9 9 10 10 9 9 9 10 10 11 11 11 11 13 14 14 27 30 35 33 25 25 27 27 23
54 55 51 37 31 34 36 35 28 26 20 16 10 8 9 10 10 9 9 9 10 10 9 9 9 13 13 14 14 16 17 19 20 26 32 31 29 28 26 21 22 22 19
57 58 55 48 39 39 41 39 32 21 17 13 8 8 10 10 10 10 9 10 10 9 9 9 11 19 18 18 19 19 20 21 24 30 30 27 30 30 24 22 18 17 14
64 58 59 60 54 45 42 40 32 20 14 10 8 8 11 11 11 10 10 10 10 10 10 10 15 18 19 21 21 21 20 20 21 24 24 29 29 28 25 24 20 15 12
70 63 68 69 63 51 45 39 34 23 13 9 8 9 11 12 12 12 11 11 11 11 11 13 14 18 20 22 22 21 19 17 18 21 21 24 24 25 25 19 20 15 15
85 79 72 70 66 59 50 42 34 26 14 10 9 9 11 13 13 12 12 12 12 13 14 16 16 20 22 22 20 18 17 19 23 23 24 24 27 26 22 17 17 17 17
86 88 85 75 72 63 53 45 35 25 18 11 11 10 10 13 13 13 13 13 14 16 16 19 20 23 23 22 20 19 21 22 22 25 23 19 17 20 20 18 19 18 17
89 89 84 82 78 73 62 49 37 25 20 15 11 11 11 12 14 14 14 15 16 17 18 21 22 22 23 24 22 21 22 22 22 22 20 21 21 23 24 24 23 21 17
88 97 94 85 79 81 72 56 41 28 22 18 14 12 11 12 13 14 16 17 19 19 22 23 24 24 25 25 24 21 20 20 20 18 18 19 20 21 23 27 27 27 23
91 97 96 95 81 86 77 62 45 32 24 20 17 14 12 12 12 15 17 19 20 22 25 26 27 26 26 27 25 24 24 23 21 20 20 19 19 20 21 20 20 20 21
83 96 92 97 95 88 88 68 50 36 27 22 20 16 14 13 12 12 17 21 22 24 26 27 28 28 28 28 28 28 28 27 26 25 25 24 23 22 23 24 24 23 23
78 83 92 94 99 91 92 72 56 41 32 25 23 20 17 14 13 13 16 22 24 26 27 28 30 31 32 32 32 32 31 32 32 31 30 29 29 27 26 27 26 25 25
67 74 82 90 96 98 98 78 62 47 37 31 25 23 20 17 14 14 14 21 25 27 28 30 33 35 36 36 36 35 35 35 36 36 34 33 34 33 33 34 33 32 30
69 71 77 91 97 99 95 81 72 53 42 36 30 25 23 20 16 14 15 19 25 26 28 32 36 38 39 39 39 39 40 40 41 40 39 37 37 38 38 39 38 36 35
60 62 68 86 93 94 97 89 81 62 48 41 35 28 26 23 19 16 16 18 25 28 32 37 39 40 41 43 44 45 46 45 45 44 43 42 43 45 44 45 44 41 39
52 57 64 80 83 88 95 95 84 71 56 46 39 31 27 24 21 19 17 19 24 31 37 41 43 44 46 47 47 49 50 51 50 49 48 49 48 48 49 49 47 45 40
46 52 59 71 74 82 88 84 91 78 66 52 41 35 29 25 22 20 19 20 23 32 39 44 47 47 47 48 50 53 54 55 57 56 57 55 53 53 54 52 49 45 42
45 49 53 60 77 79 83 76 79 80 72 63 50 40 32 27 25 23 21 22 26 32 39 44 46 47 48 50 53 56 55 59 63 61 59 58 60 57 56 56 51 46 43
47 48 49 54 68 79 73 77 75 81 88 86 64 54 42 32 30 30 26 27 30 39 42 43 45 47 49 49 54 56 60 69 65 61 63 66 63 61 61 60 52 47 45
50 51 51 49 57 60 63 76 72 84 95 95 93 87 71 60 55 47 37 36 41 45 48 48 55 62 62 62 73 76 63 60 65 70 69 66 67 64 60 60 57 51 43